When you browse on this site, cookies collect data to enhance your experience and personalize the content and advertising you see.
Visit our Privacy Policy to learn more. By continuing to use the site, you agree to this use of cookies and data.
  • Em Portugal
  • Lista de países
  • Para 7 dias
  • Temperatura da água
  • Mapa do tempo
  • Widgets de tempo
  • user-avatar
    Iniciar Sessão

    Previsão horária em Idjevan

    Hoje, 16 Dezembro, Segunda-feira

    Tempo Temperatura Precipitação Vento Pressão Humidade
    00:00 +5°C° 0 mm 3 m/s 694 mmHg 73%
    01:00 +5°C° 0 mm 3 m/s 694 mmHg 73%
    02:00 +5°C° 0 mm 3 m/s 694 mmHg 73%
    03:00 +5°C° 0 mm 3 m/s 694 mmHg 73%
    04:00 +5°C° 0 mm 3 m/s 694 mmHg 73%
    05:00 +5°C° 0 mm 3 m/s 695 mmHg 73%
    06:00 +4°C° 0 mm 3 m/s 695 mmHg 73%
    07:00 +6°C° 0 mm 2 m/s 695 mmHg 71%
    08:00 +7°C° 0 mm 2 m/s 696 mmHg 68%
    09:00 +7°C° 0 mm 2 m/s 696 mmHg 66%
    10:00 +9°C° 0 mm 2 m/s 696 mmHg 62%
    11:00 +11°C° 0 mm 1 m/s 696 mmHg 58%
    12:00 +12°C° 0 mm 1 m/s 696 mmHg 54%
    13:00 +12°C° 0 mm 1 m/s 696 mmHg 55%
    14:00 +12°C° 0 mm 1 m/s 696 mmHg 57%
    15:00 +12°C° 0 mm 1 m/s 695 mmHg 59%
    16:00 +10°C° 0 mm 1 m/s 696 mmHg 66%
    17:00 +9°C° 0 mm 1 m/s 696 mmHg 73%
    18:00 +8°C° 0 mm 1 m/s 696 mmHg 80%
    19:00 +8°C° 0 mm 1 m/s 696 mmHg 81%
    20:00 +7°C° 0 mm 1 m/s 697 mmHg 81%
    21:00 +7°C° 0 mm 1 m/s 697 mmHg 82%
    22:00 +6°C° 0 mm 0 m/s 698 mmHg 83%
    23:00 +5°C° 0 mm 0 m/s 698 mmHg 84%

    Amanhã, 17 Dezembro, Terça-feira

    Tempo Temperatura Precipitação Vento Pressão Humidade
    00:00 +5°C° 0 mm 0 m/s 698 mmHg 85%
    01:00 +5°C° 0 mm 0 m/s 698 mmHg 85%
    02:00 +5°C° 0 mm 0 m/s 698 mmHg 85%
    03:00 +4°C° 0 mm 0 m/s 698 mmHg 84%
    04:00 +4°C° 0 mm 0 m/s 698 mmHg 84%
    05:00 +4°C° 0 mm 0 m/s 698 mmHg 83%
    06:00 +5°C° 0 mm 1 m/s 698 mmHg 82%
    07:00 +6°C° 0 mm 1 m/s 699 mmHg 78%
    08:00 +6°C° 0 mm 1 m/s 699 mmHg 73%
    09:00 +7°C° 0 mm 1 m/s 699 mmHg 68%
    10:00 +8°C° 0 mm 1 m/s 699 mmHg 64%
    11:00 +9°C° 0 mm 1 m/s 699 mmHg 60%
    12:00 +9°C° 0 mm 0 m/s 699 mmHg 56%
    13:00 +10°C° 0 mm 1 m/s 699 mmHg 58%
    14:00 +10°C° 0 mm 1 m/s 699 mmHg 60%
    15:00 +10°C° 0 mm 1 m/s 699 mmHg 61%
    16:00 +9°C° 0 mm 1 m/s 699 mmHg 67%
    17:00 +8°C° 0 mm 1 m/s 699 mmHg 73%
    18:00 +7°C° 0 mm 1 m/s 699 mmHg 78%
    19:00 +6°C° 0 mm 1 m/s 699 mmHg 78%
    20:00 +6°C° 0 mm 1 m/s 700 mmHg 77%
    21:00 +6°C° 0 mm 1 m/s 700 mmHg 77%
    22:00 +6°C° 0 mm 1 m/s 700 mmHg 76%
    23:00 +6°C° 0 mm 1 m/s 701 mmHg 76%

    Depois de amanhã, 18 Dezembro, Quarta-feira

    Tempo Temperatura Precipitação Vento Pressão Humidade
    00:00 +6°C° 0 mm 1 m/s 701 mmHg 75%
    01:00 +5°C° 0 mm 1 m/s 701 mmHg 75%
    02:00 +5°C° 0 mm 1 m/s 701 mmHg 74%
    03:00 +5°C° 0 mm 1 m/s 701 mmHg 74%
    04:00 +5°C° 0 mm 1 m/s 701 mmHg 72%
    05:00 +5°C° 0 mm 1 m/s 701 mmHg 70%
    06:00 +4°C° 0 mm 2 m/s 701 mmHg 68%
    07:00 +5°C° 0 mm 2 m/s 701 mmHg 63%
    08:00 +5°C° 0 mm 2 m/s 701 mmHg 58%
    09:00 +6°C° 0 mm 2 m/s 702 mmHg 54%
    10:00 +9°C° 0 mm 1 m/s 701 mmHg 50%
    11:00 +10°C° 0 mm 1 m/s 701 mmHg 47%
    12:00 +11°C° 0 mm 1 m/s 701 mmHg 43%
    13:00 +11°C° 0 mm 1 m/s 701 mmHg 45%
    14:00 +11°C° 0 mm 1 m/s 700 mmHg 47%
    15:00 +11°C° 0 mm 1 m/s 700 mmHg 49%
    16:00 +10°C° 0 mm 1 m/s 700 mmHg 50%
    17:00 +8°C° 0 mm 2 m/s 700 mmHg 52%
    18:00 +5°C° 0 mm 3 m/s 700 mmHg 53%
    19:00 +5°C° 0 mm 3 m/s 700 mmHg 51%
    20:00 +5°C° 0 mm 3 m/s 701 mmHg 49%
    21:00 +5°C° 0 mm 3 m/s 701 mmHg 47%
    22:00 +5°C° 0 mm 3 m/s 701 mmHg 46%
    23:00 +5°C° 0 mm 3 m/s 701 mmHg 46%

    19 Dezembro, Quinta-feira

    Tempo Temperatura Precipitação Vento Pressão Humidade
    00:00 +5°C° 0 mm 3 m/s 701 mmHg 45%
    01:00 +5°C° 0 mm 3 m/s 701 mmHg 45%
    02:00 +5°C° 0 mm 3 m/s 701 mmHg 45%
    03:00 +5°C° 0 mm 3 m/s 700 mmHg 46%
    04:00 +5°C° 0 mm 3 m/s 700 mmHg 45%
    05:00 +5°C° 0 mm 3 m/s 700 mmHg 45%
    06:00 +5°C° 0 mm 3 m/s 700 mmHg 44%
    07:00 +7°C° 0 mm 3 m/s 700 mmHg 42%
    08:00 +8°C° 0 mm 3 m/s 701 mmHg 40%
    09:00 +9°C° 0 mm 3 m/s 701 mmHg 39%
    10:00 +10°C° 0 mm 2 m/s 701 mmHg 37%
    11:00 +13°C° 0 mm 2 m/s 701 mmHg 35%
    12:00 +14°C° 0 mm 1 m/s 700 mmHg 33%
    13:00 +14°C° 0 mm 1 m/s 700 mmHg 35%
    14:00 +14°C° 0 mm 1 m/s 700 mmHg 38%
    15:00 +14°C° 0 mm 1 m/s 699 mmHg 40%
    16:00 +13°C° 0 mm 2 m/s 699 mmHg 41%
    17:00 +10°C° 0 mm 2 m/s 699 mmHg 42%
    18:00 +9°C° 0 mm 3 m/s 699 mmHg 42%
    19:00 +9°C° 0 mm 3 m/s 699 mmHg 41%
    20:00 +9°C° 0 mm 3 m/s 699 mmHg 39%
    21:00 +9°C° 0 mm 3 m/s 699 mmHg 38%
    22:00 +9°C° 0 mm 3 m/s 699 mmHg 38%
    23:00 +8°C° 0 mm 3 m/s 699 mmHg 38%

    20 Dezembro, Sexta-feira

    Tempo Temperatura Precipitação Vento Pressão Humidade
    00:00 +8°C° 0 mm 3 m/s 699 mmHg 38%
    01:00 +8°C° 0 mm 3 m/s 699 mmHg 38%
    02:00 +8°C° 0 mm 3 m/s 698 mmHg 38%
    03:00 +7°C° 0 mm 4 m/s 698 mmHg 38%
    04:00 +7°C° 0 mm 4 m/s 698 mmHg 38%
    05:00 +7°C° 0 mm 4 m/s 697 mmHg 38%
    06:00 +7°C° 0 mm 4 m/s 697 mmHg 38%
    07:00 +8°C° 0 mm 4 m/s 697 mmHg 38%
    08:00 +9°C° 0 mm 3 m/s 697 mmHg 37%
    09:00 +10°C° 0 mm 3 m/s 697 mmHg 37%
    10:00 +12°C° 0 mm 3 m/s 697 mmHg 35%
    11:00 +13°C° 0 mm 3 m/s 697 mmHg 34%
    12:00 +15°C° 0 mm 2 m/s 697 mmHg 32%
    13:00 +15°C° 0 mm 2 m/s 696 mmHg 34%
    14:00 +15°C° 0 mm 2 m/s 696 mmHg 35%
    15:00 +14°C° 0 mm 2 m/s 695 mmHg 37%
    16:00 +12°C° 0 mm 3 m/s 695 mmHg 38%
    17:00 +11°C° 0 mm 3 m/s 695 mmHg 39%
    18:00 +8°C° 0 mm 4 m/s 694 mmHg 39%
    19:00 +8°C° 0 mm 4 m/s 694 mmHg 38%
    20:00 +8°C° 0 mm 4 m/s 694 mmHg 37%
    21:00 +8°C° 0 mm 4 m/s 694 mmHg 36%
    22:00 +7°C° 0 mm 4 m/s 694 mmHg 36%
    23:00 +7°C° 0 mm 4 m/s 694 mmHg 36%

    21 Dezembro, Sábado

    Tempo Temperatura Precipitação Vento Pressão Humidade
    00:00 +7°C° 0 mm 4 m/s 694 mmHg 36%
    01:00 +7°C° 0 mm 4 m/s 694 mmHg 36%
    02:00 +7°C° 0 mm 4 m/s 694 mmHg 36%
    03:00 +7°C° 0 mm 3 m/s 693 mmHg 36%
    04:00 +7°C° 0 mm 3 m/s 693 mmHg 36%
    05:00 +7°C° 0 mm 3 m/s 693 mmHg 36%
    06:00 +7°C° 0 mm 3 m/s 693 mmHg 37%
    07:00 +7°C° 0 mm 3 m/s 694 mmHg 36%
    08:00 +8°C° 0 mm 3 m/s 694 mmHg 35%
    09:00 +9°C° 0 mm 3 m/s 694 mmHg 34%
    10:00 +10°C° 0 mm 3 m/s 694 mmHg 33%
    11:00 +12°C° 0 mm 2 m/s 694 mmHg 32%
    12:00 +13°C° 0 mm 2 m/s 694 mmHg 30%
    13:00 +13°C° 0 mm 2 m/s 693 mmHg 32%
    14:00 +12°C° 0 mm 2 m/s 693 mmHg 35%
    15:00 +12°C° 0 mm 2 m/s 693 mmHg 37%
    16:00 +10°C° 0 mm 2 m/s 693 mmHg 38%
    17:00 +9°C° 0 mm 3 m/s 693 mmHg 39%
    18:00 +7°C° 0 mm 3 m/s 693 mmHg 40%
    19:00 +7°C° 0 mm 3 m/s 693 mmHg 39%
    20:00 +7°C° 0 mm 3 m/s 694 mmHg 38%
    21:00 +7°C° 0 mm 3 m/s 694 mmHg 36%
    22:00 +7°C° 0 mm 2 m/s 694 mmHg 37%
    23:00 +7°C° 0 mm 2 m/s 694 mmHg 37%
    Mostrar mais